Погода в Махнёве

Россия / Свердловская область     58°26′54″N   61°42′34″E
темп.,
°C
ветер,
м/с
пор.,
м/с
влажн.,
%
обл.,
%
осадки,
мм/ч
давл.,
гПа
погр.,
м
21 января, пт
пт2123:00−10ююз3109580 0.3 1018222
02:00−9ююз31092100 0.0 1018360
05:00−8ююз41193100 0.1 1018530
08:00−8юз41288100 0.0 1017462
11:00−8юз41287100 0.0 1019513
14:00−7юз4118397 0.0 1019596
17:00−7юз4128873 0.1 1020576
20:00−8юз4108778 0.0 1021409
22 января, сб
сб2223:00−8зюз4118760 0.0 1022384
02:00−10зюз4128971 0.0 1023339
05:00−10зюз3119176 0.0 1025290
08:00−11юз3109387 0.0 1025227
11:00−10зюз310915 0.0 1027247
14:00−7зюз398697 0.0 1028314
17:00−10юз26955 0.0 102981
20:00−11юз29955 0.0 1031135
23 января, вс
вс2323:00−13юз26965 0.0 103296
02:00−15юз259732 0.0 103266
05:00−15юз25975 0.0 103366
08:00−15ююз259726 0.0 103467
11:00−12юз269424 0.0 1034107
14:00−7ююз2589100 0.0 1035184
17:00−8ююз269588 0.0 1036125
20:00−10юз2696100 0.0 103793
24 января, пн
пн2423:00−10ююз2594100 0.0 103798
02:00−9юз2793100 0.0 1037135
05:00−8юз3990100 0.0 1037187
08:00−7зюз3891100 0.0 1037227
11:00−5зюз31094100 0.2 1037330
14:00−4зюз3992100 0.2 1036448
17:00−5зюз3996100 0.5 1036449
20:00−6зюз3896100 0.7 1035431
25 января, вт
вт2523:00−6з389443 1.2 1034370
02:00−12зюз2896100 0.0 1033151
05:00−12зюз299634 0.0 1032171
08:00−11з3109346 0.0 1031236
11:00−10з310915 0.0 1030328
14:00−7з37866 0.0 1029409
17:00−12юз119639 0.0 102810
20:00−12зюз279581 0.0 1028122